Tracking 19794 objects as of 21-Jul-2019
HD Live streaming from Space Station
objects crossing your sky now

NOAA 16 DEB

Track NOAA 16 DEB now!
10-day predictions


NORAD ID: 41295
Int'l Code: 2000-055GX
Perigee: 852.1 km
Apogee: 894.7 km
Inclination: 98.8 °
Period: 102.3 minutes
Semi major axis: 7244 km
RCS: Unknown
Launch date: September 21, 2000
Source: United States (US)
Launch site: AIR FORCE WESTERN TEST RANGE (AFWTR)

Note: This is SATELLITE DEBRIS
aabbcc
Your satellite tracking list
Your tracking list is empty




NASA's NSSDC Master Catalog

Two Line Element Set (TLE):
1 41295U 00055GX  19201.61257661 +.00000362 +00000-0 +23758-3 0  9997
2 41295 098.8164 261.9543 0029394 164.0553 196.1549 14.07996214183718
Source of the keplerian elements: AFSPC